TimeEST,TemperatureF,Dew PointF,Humidity,Sea Level PressureIn,VisibilityMPH,Wind Direction,Wind SpeedMPH,Gust SpeedMPH,PrecipitationIn,Events,Conditions,WindDirDegrees,DateUTC
12:54 AM,30.0,19.9,66,30.20,10.0,North,9.2,17.3,N/A,,Mostly Cloudy,350,2008-12-13 05:54:00
1:54 AM,28.9,21.0,72,30.22,10.0,North,12.7,19.6,N/A,,Mostly Cloudy,350,2008-12-13 06:54:00
2:54 AM,28.9,19.0,67,30.25,10.0,North,12.7,-,N/A,,Clear,350,2008-12-13 07:54:00
3:54 AM,28.0,19.0,69,30.25,10.0,North,11.5,20.7,N/A,,Clear,350,2008-12-13 08:54:00
4:54 AM,27.0,18.0,69,30.27,10.0,NNW,11.5,-,N/A,,Clear,340,2008-12-13 09:54:00
5:54 AM,26.1,19.0,75,30.30,10.0,NNW,8.1,-,N/A,,Clear,340,2008-12-13 10:54:00
6:54 AM,25.0,19.0,78,30.33,10.0,NNW,8.1,-,N/A,,Clear,340,2008-12-13 11:54:00
7:54 AM,25.0,19.0,78,30.36,10.0,Calm,Calm,-,N/A,,Clear,0,2008-12-13 12:54:00
8:54 AM,28.0,19.9,72,30.38,10.0,NNW,5.8,-,N/A,,Clear,340,2008-12-13 13:54:00
9:54 AM,30.9,19.0,61,30.40,10.0,NNW,4.6,-,N/A,,Clear,340,2008-12-13 14:54:00
10:54 AM,35.1,21.0,57,30.38,10.0,NW,4.6,-,N/A,,Clear,320,2008-12-13 15:54:00
11:54 AM,39.0,19.9,46,30.34,10.0,Calm,Calm,-,N/A,,Clear,0,2008-12-13 16:54:00
12:54 PM,41.0,17.1,38,30.31,10.0,SSE,5.8,-,N/A,,Clear,160,2008-12-13 17:54:00
1:54 PM,46.9,14.0,27,30.28,10.0,South,9.2,-,N/A,,Clear,170,2008-12-13 18:54:00
2:54 PM,46.0,19.0,34,30.28,10.0,Variable,6.9,-,N/A,,Clear,0,2008-12-13 19:54:00
3:54 PM,45.0,19.9,37,30.29,10.0,SSE,8.1,-,N/A,,Clear,150,2008-12-13 20:54:00
4:54 PM,41.0,21.0,45,30.32,10.0,SE,6.9,-,N/A,,Clear,140,2008-12-13 21:54:00
5:54 PM,39.0,21.0,49,30.35,10.0,SE,6.9,-,N/A,,Clear,140,2008-12-13 22:54:00
6:54 PM,37.9,21.0,51,30.37,10.0,SE,4.6,-,N/A,,Clear,130,2008-12-13 23:54:00
7:54 PM,37.0,21.9,54,30.40,10.0,SSE,6.9,-,N/A,,Clear,160,2008-12-14 00:54:00
8:54 PM,36.0,23.0,59,30.40,10.0,South,5.8,-,N/A,,Clear,180,2008-12-14 01:54:00
9:54 PM,36.0,21.9,57,30.42,10.0,SE,3.5,-,N/A,,Clear,140,2008-12-14 02:54:00
10:54 PM,36.0,21.9,57,30.40,10.0,SE,3.5,-,N/A,,Clear,140,2008-12-14 03:54:00
11:54 PM,34.0,21.9,61,30.39,10.0,SSE,4.6,-,N/A,,Clear,160,2008-12-14 04:54:00